Date;Poids;Temperature;Hygrometrie
2024-04-19 15:14:13;41.3;14;100
2024-04-19 13:19:04;41.8;13;100
2024-04-19 11:24:00;42;10;100
2024-04-19 09:29:06;42.1;6;102
2024-04-19 07:34:20;42.3;4;102
2024-04-19 05:39:37;42.3;4;101
2024-04-19 03:44:52;42.2;6;102
2024-04-19 01:50:05;42.2;6;102
2024-04-18 23:55:16;42.3;6;102
2024-04-18 22:00:27;42.3;7;102
2024-04-18 20:05:34;42.2;9;102
2024-04-18 18:10:36;42.3;10;101
2024-04-18 16:15:38;42.3;10;101
2024-04-18 14:20:42;42.3;9;101
2024-04-18 12:25:50;42.4;6;103
2024-04-18 10:31:03;42.4;8;101
2024-04-14 19:55:16;43.1;23;100
2024-04-14 17:59:35;42.6;25;99
2024-04-14 16:03:52;42.2;25;99
2024-04-14 14:08:09;42;24;99
2024-04-14 12:12:30;41.9;21;99
2024-04-14 10:17:04;42.4;17;102
2024-04-14 08:21:55;42.9;11;104
2024-04-14 06:26:58;43.1;10;102
2024-04-14 04:31:58;43.1;11;102
2024-04-14 02:36:55;43.1;12;103
2024-04-14 00:41:51;43.2;13;103
2024-04-13 22:46:44;43.2;14;102
2024-04-13 20:51:32;43.2;17;99
2024-04-13 18:56:03;42.6;24;98
2024-04-13 17:02:14;41.9;24;100
2024-04-13 15:06:34;41.7;23;100
2024-04-13 13:10:58;41.6;21;100
2024-04-13 11:15:30;41.7;18;102
2024-04-13 09:20:14;42.3;13;101
2024-04-13 07:25:16;42.7;8;102
2024-04-13 05:30:23;42.7;9;102
2024-04-13 03:35:27;42.7;10;102
2024-04-13 01:40:26;42.7;12;102
2024-04-12 23:45:19;42.6;14;103
2024-04-12 21:50:10;42.7;15;101
2024-04-12 19:54:51;42.6;20;101
2024-04-12 17:59:16;42;22;101
2024-04-12 16:03:41;41.6;21;101
2024-04-12 14:08:11;41.5;19;102
2024-04-12 12:12:46;41.6;17;102
2024-04-12 10:17:32;42.1;12;102
2024-04-12 08:22:34;42.5;7;104
2024-04-12 06:27:47;42.6;7;102
2024-04-12 04:32:56;42.6;8;102
2024-04-12 02:38:04;42.6;9;101
2024-04-12 00:43:07;42.6;11;101
2024-04-11 22:48:05;42.6;12;101
2024-04-11 20:52:58;42.6;15;102
2024-04-11 18:57:41;42.5;18;102
2024-04-11 17:02:22;42.5;17;103
2024-04-11 15:09:19;41.8;17;102
2024-04-11 13:14:03;42;15;102
2024-04-11 13:13:01;43.8;15;102
2024-04-11 13:12:26;42;15;102
2024-04-11 13:11:24;48.6;15;102
2024-04-11 13:10:50;41.9;15;102
2024-04-11 13:10:14;29;15;102
2024-04-11 13:09:44;25.9;15;102
2024-04-11 13:09:05;28.7;15;102
2024-04-11 12:23:23;35;14;102
2024-04-11 10:28:16;35.2;11;102
2024-04-11 08:33:18;35.5;8;103
2024-04-11 06:38:27;35.6;8;103
2024-04-11 04:43:35;35.6;8;103
2024-04-11 02:48:41;35.6;9;103
2024-04-11 00:53:44;35.6;10;103
2024-04-10 22:58:45;35.6;11;103
2024-04-10 21:03:43;35.7;12;103
2024-04-10 19:08:37;35.5;14;102
2024-04-10 17:13:29;35.6;13;102
2024-04-10 15:18:21;35.7;13;102
2024-04-10 13:23:18;35.6;12;102
2024-04-10 11:28:16;35.9;10;102
2024-04-10 09:33:22;36;8;103
2024-04-10 07:38:31;36.1;8;103
2024-04-10 05:43:40;36.1;8;103
2024-04-10 03:48:48;36.2;7;103
2024-04-10 01:53:58;36.2;8;102
2024-04-09 23:59:08;36.2;8;98
2024-04-09 07:35:29;36.4;10;102
2024-04-09 05:40:30;36.2;13;99
2024-04-09 03:45:17;36.1;16;100
2024-04-09 01:50:02;36.2;17;100
2024-04-08 23:54:40;36.2;19;99
2024-04-08 21:59:15;36.3;19;99
2024-04-08 20:03:48;36.3;20;99
2024-04-08 18:08:14;35.7;23;97
2024-04-08 16:12:37;35.2;23;96
2024-04-08 14:17:00;35;22;96
2024-04-08 12:21:28;34.9;20;96
2024-04-08 10:26:03;35.2;18;97
2024-04-08 08:30:50;35.7;12;100
2024-04-08 06:35:48;35.8;11;101
2024-04-08 04:40:48;35.9;10;101
2024-04-08 02:45:47;35.9;12;101
2024-04-08 00:50:42;35.9;14;101
2024-04-07 22:55:34;35.9;14;101
2024-04-07 21:00:23;35.9;16;101
2024-04-07 19:05:02;35.8;19;99
2024-04-07 17:09:35;35.3;20;98
2024-04-07 15:14:05;35;20;97
2024-04-07 13:18:39;35;18;98
2024-04-07 11:23:19;35.5;16;99
2024-04-07 09:28:08;35.7;13;101
2024-04-07 07:33:05;35.9;12;101
2024-04-07 05:38:02;36;11;102
2024-04-07 03:43:00;36;11;102
2024-04-07 01:47:58;36;12;101
2024-04-06 23:52:54;36;13;102
2024-04-06 21:57:45;36;15;101
2024-04-06 20:02:29;36;18;100
2024-04-06 18:07:01;35.6;21;99
2024-04-06 16:11:28;35;22;98
2024-04-06 14:15:56;34.7;21;98
2024-04-06 12:20:22;34.4;20;97
2024-04-06 10:25:00;34.8;16;99
2024-04-06 08:29:51;35.4;12;103
2024-04-06 06:34:54;35.6;10;101
2024-04-06 04:39:55;35.6;11;102
2024-04-06 02:44:56;35.6;11;102
2024-04-06 00:49:56;35.6;13;101
2024-04-05 22:54:46;35.6;14;101
2024-04-05 20:59:35;35.6;16;101
2024-04-05 19:04:11;35.5;21;98
2024-04-05 17:25:45;34.8;21;99
2024-04-05 15:30:12;34.4;21;99
2024-04-05 13:34:40;34.1;21;98
2024-04-05 11:39:12;34.1;18;99
2024-04-05 09:47:38;34.8;14;102
2024-04-05 07:52:33;35;11;102
2024-04-05 05:57:33;35.1;10;102
2024-04-05 04:02:32;35.1;11;102
2024-04-05 02:07:31;35.1;11;101
2024-04-05 00:12:28;35.2;12;101
2024-04-04 22:17:19;35.1;15;102
2024-04-04 20:22:04;35.1;17;101
2024-04-04 18:26:36;34.6;20;100
2024-04-04 16:31:06;34.1;20;100
2024-04-04 14:35:36;33.9;20;99
2024-04-04 12:40:08;33.8;19;99
2024-04-04 10:44:48;34;16;99
2024-04-04 03:50:18;34.7;9;102
2024-04-04 01:55:21;34.7;10;101
2024-04-04 00:00:19;34.6;13;102
2024-04-03 22:05:11;34.6;14;102
2024-04-03 20:10:02;34.6;15;99
2024-04-03 18:14:39;34;19;100
2024-04-03 16:19:15;33.9;18;100
2024-04-03 14:23:53;33.7;17;101
2024-04-03 12:28:36;34.3;16;101
2024-04-03 10:33:24;34.3;13;102
2024-04-03 08:38:21;34.4;11;103
2024-04-03 06:43:23;34.5;11;103
2024-04-03 04:48:22;34.5;11;103
2024-04-03 02:53:22;34.5;11;103
2024-04-03 00:58:20;34.5;11;103
2024-04-02 23:03:17;34.5;12;103
2024-04-02 21:08:14;34.5;13;102
2024-04-02 19:13:08;34.5;17;98
2024-04-02 17:17:41;33.8;18;98
2024-04-02 15:22:24;33.8;15;100
2024-04-02 13:27:11;33.9;15;100
2024-04-02 13:24:19;40.6;15;100
2024-04-02 13:01:11;33.8;15;98
2024-04-02 00:38:40;34.4;9;100
2024-04-01 22:43:42;34.4;11;102
2024-04-01 20:48:39;34.4;13;102
2024-04-01 18:53:28;34.3;16;100
2024-04-01 16:58:12;33.8;17;99
2024-04-01 15:02:57;33.8;15;99
2024-04-01 13:07:43;33.8;15;100
2024-04-01 11:12:35;34;12;103
2024-04-01 09:17:33;34.2;10;104
2024-04-01 07:22:39;34.4;8;103
2024-04-01 05:27:47;34.4;9;102
2024-04-01 03:32:50;34.4;10;103
2024-04-01 01:37:49;34.3;12;104
2024-03-31 23:42:44;34.2;13;103
2024-03-31 21:47:40;34.2;11;103
2024-03-31 19:52:38;34.2;13;102
2024-03-31 17:57:28;34.2;15;100
2024-03-31 16:02:14;34;16;100
2024-03-31 14:06:59;33.9;15;101
2024-03-31 12:11:48;34;14;101
2024-03-31 10:16:44;34.1;10;104
2024-03-31 08:21:46;34.2;10;103
2024-03-31 06:26:49;34.3;10;103
2024-03-31 04:31:51;34.2;11;103
2024-03-31 02:36:52;34.3;10;103
2024-03-31 00:41:53;34.3;10;103
2024-03-30 22:46:57;34.3;10;102
2024-03-30 20:51:57;34.3;11;103
2024-03-30 18:56:52;34.3;13;104
2024-03-30 17:01:49;34.5;12;103
2024-03-30 15:06:44;34.2;13;103
2024-03-30 13:11:37;34.2;12;105
2024-03-30 11:16:34;34;13;103
2024-03-30 09:21:27;34;13;102
2024-03-30 07:26:14;33.8;18;102
2024-03-30 05:30:51;33.9;18;102
2024-03-30 03:35:30;33.9;18;101
2024-03-30 01:40:06;34;18;102
2024-03-29 23:44:45;34.1;18;102
2024-03-29 21:49:23;34.1;17;102
2024-03-29 19:54:05;34.2;18;102
2024-03-29 17:58:38;34;20;102
2024-03-29 16:03:08;33.9;20;101
2024-03-29 14:07:39;33.8;20;101
2024-03-29 12:12:12;33.5;19;101
2024-03-29 10:16:52;33.9;17;102
2024-03-29 08:21:37;34.1;15;103
2024-03-29 06:26:23;34.2;15;102
2024-03-29 04:31:13;34.2;14;102
2024-03-29 02:36:06;34.3;13;102
2024-03-29 00:41:01;34.4;11;102
2024-03-28 22:46:01;34.5;10;102
2024-03-28 20:51:01;34.5;12;102
2024-03-28 18:55:53;34.4;17;97
2024-03-28 17:00:39;34.1;18;94
2024-03-27 23:09:26;34.8;7;101
2024-03-27 21:14:34;34.7;9;102
2024-03-27 19:19:39;34.8;11;100
2024-03-27 17:24:37;34.6;14;95
2024-03-25 07:45:14;35.2;1;100
2024-03-25 05:50:38;35.1;2;97
2024-03-23 20:44:18;35.1;10;99
2024-03-23 18:49:13;35;15;101
2024-03-23 16:53:57;34.8;17;100
2024-03-23 14:58:42;34.6;15;102
2024-03-23 13:03:30;34.6;14;103
2024-03-23 11:08:19;34.8;14;103
2024-03-23 09:13:10;34.8;13;103
2024-03-23 07:18:04;34.9;12;102
2024-03-23 05:22:58;34.9;13;102
2024-03-23 03:27:53;35;12;101
2024-03-23 01:32:48;35;12;100
2024-03-22 23:37:40;34.9;14;100
2024-03-22 21:42:25;34.9;16;102
2024-03-22 19:47:10;34.9;18;97
2024-03-22 17:51:37;34.4;23;98
2024-03-22 15:55:58;34.2;22;100
2024-03-22 14:00:24;34.2;20;100
2024-03-22 12:04:54;34.2;19;100
2024-03-22 10:09:36;34.5;14;103
2024-03-22 08:14:29;34.7;12;102
2024-03-22 06:19:23;34.7;13;103
2024-03-22 04:24:14;34.8;13;103
2024-03-22 02:29:06;34.8;12;103
2024-03-22 00:34:00;34.8;13;102
2024-03-21 22:38:51;34.8;14;102
2024-03-21 20:43:37;34.8;16;99
2024-03-21 18:48:09;34.5;22;101
2024-03-21 16:52:28;34.2;23;99
2024-03-21 14:56:52;34.2;21;100
2024-03-21 13:01:23;34.3;19;101
2024-03-21 11:06:02;34.4;15;103
2024-03-21 09:10:54;34.7;11;104
2024-03-21 07:15:55;34.8;10;103
2024-03-21 05:20:55;34.8;10;103
2024-03-21 03:25:56;34.8;10;102
2024-03-21 01:30:56;34.8;11;102
2024-03-20 23:35:53;34.8;12;101
2024-03-20 21:40:45;34.7;14;101
2024-03-20 19:45:31;34.6;17;102
2024-03-20 17:50:07;34.5;19;101
2024-03-20 15:54:36;34.4;20;101
2024-03-20 13:59:06;34.4;20;101
2024-03-20 12:03:41;34.4;17;100
2024-03-20 10:08:34;34.8;10;102
2024-03-20 08:13:42;35.1;5;103
2024-03-20 06:18:56;35.1;5;103
2024-03-20 04:24:09;35.1;6;103
2024-03-20 02:29:21;35;6;103
2024-03-20 00:34:31;35;7;103
2024-03-19 22:39:38;34.9;9;102
2024-03-19 20:44:39;34.8;13;100
2024-03-19 18:49:23;34.6;19;101
2024-03-19 16:54:00;34.5;19;102
2024-03-19 14:58:33;34.5;19;102
2024-03-19 13:03:09;34.5;17;103
2024-03-19 11:07:54;34.6;15;102
2024-03-19 09:12:49;35;10;104
2024-03-19 07:17:56;35.1;8;102
2024-03-19 05:23:02;35.1;9;102
2024-03-19 03:28:07;35.1;9;102
2024-03-19 01:33:11;35;10;102
2024-03-18 23:38:10;35;11;101
2024-03-18 21:43:07;34.9;13;101
2024-03-18 19:47:56;34.8;17;102
2024-03-18 17:52:33;34.7;19;103
2024-03-18 15:57:04;34.7;20;102
2024-03-18 14:01:35;34.6;20;102
2024-03-18 12:06:08;34.6;18;101
2024-03-18 10:10:51;34.9;14;104
2024-03-18 08:15:45;35;13;103
2024-03-18 06:20:38;35;13;104
2024-03-18 04:25:32;35.1;13;103
2024-03-18 02:30:24;35.1;13;104
2024-03-18 00:35:17;35.1;13;104
2024-03-17 22:40:09;35.1;13;103
2024-03-17 20:45:00;35.1;14;101
2024-03-17 18:49:44;35;17;102
2024-03-17 16:54:21;34.9;18;102
2024-03-17 14:59:04;34.8;18;102
2024-03-17 13:03:35;34.9;16;103
2024-03-17 11:08:23;35.1;13;103
2024-03-17 09:13:23;35.3;8;105
2024-03-17 07:18:32;35.4;7;103
2024-03-17 05:23:41;35.4;7;103
2024-03-17 03:28:53;35.4;6;103
2024-03-17 01:34:04;35.4;6;102
2024-03-16 23:39:14;35.4;7;102
2024-03-16 21:44:20;35.3;10;101
2024-03-16 19:49:15;35.2;15;103
2024-03-16 17:53:57;35.1;17;103
2024-03-16 15:58:33;35;18;103
2024-03-16 14:03:10;35;17;104
2024-03-16 12:07:52;35.1;16;102
2024-03-16 10:12:43;35.4;11;103
2024-03-16 08:17:49;35.6;6;103
2024-03-16 06:23:01;35.6;6;103
2024-03-16 04:28:15;35.6;6;102
2024-03-16 02:33:22;35.6;8;103
2024-03-16 00:38:28;35.5;9;103
2024-03-15 22:43:32;35.5;10;102
2024-03-15 20:48:27;35.4;13;102
2024-03-15 18:53:13;35.3;17;102
2024-03-15 16:57:47;35.2;19;102
2024-03-15 15:02:21;35;18;102
2024-03-15 13:07:02;35.2;16;104
2024-03-15 11:11:48;35.2;13;104
2024-03-15 09:16:47;35.6;8;104
2024-03-15 07:21:55;35.6;9;103
2024-03-15 05:27:00;35.6;8;102
2024-03-15 03:32:05;35.6;9;102
2024-03-15 01:37:09;35.6;10;102
2024-03-14 23:42:09;35.5;11;103
2024-03-14 21:47:06;35.5;12;102
2024-03-14 19:52:00;35.5;14;103
2024-03-14 17:56:44;35.4;17;102
2024-03-14 16:01:24;35.4;17;103
2024-03-14 14:06:06;35.4;16;104
2024-03-14 12:10:50;35.4;15;102
2024-03-14 10:15:43;35.6;10;103
2024-03-14 08:20:50;35.9;5;104
2024-03-14 06:26:04;36;4;103
2024-03-14 04:31:19;36;5;103
2024-03-14 02:36:32;36;6;103
2024-03-14 00:41:43;35.9;7;102
2024-03-13 22:46:52;35.9;8;102
2024-03-13 20:51:56;35.9;10;101
2024-03-13 18:56:49;35.7;16;102
2024-03-13 17:01:31;35.6;17;102
2024-03-13 15:06:12;35.7;16;102
2024-03-13 14:56:25;34.2;16;102
2024-03-13 14:52:36;35.8;16;102
2024-03-13 14:06:54;34.3;15;102
2024-03-13 14:05:24;41.1;15;102
2024-03-13 14:04:48;34.3;15;102
2024-03-13 14:04:14;24.7;15;103
2024-03-13 14:03:39;22.7;15;103
2024-03-13 14:03:04;27.9;15;103
2024-03-13 13:59:16;34.3;15;103
2024-03-13 13:56:23;35.8;15;103
2024-03-13 13:47:03;34.2;15;103
2024-03-13 13:46:28;36.1;15;103
2024-03-13 13:35:46;34.3;15;103
2024-03-13 12:12:48;34.3;14;103
2024-03-13 10:17:43;34.6;10;103
2024-03-13 08:22:49;34.9;6;104
2024-03-13 06:28:02;34.9;6;103
2024-03-13 04:33:11;34.8;8;105
2024-03-13 02:38:18;34.8;7;104
2024-03-13 00:43:30;34.8;6;104
2024-03-12 22:48:40;34.8;7;104
2024-03-12 20:53:48;34.8;9;103
2024-03-12 18:58:48;34.7;12;103
2024-03-12 17:03:44;34.7;12;102
2024-03-12 15:08:38;34.8;12;102
2024-03-12 13:13:33;34.8;11;104
2024-03-12 11:18:32;34.9;9;104
2024-03-12 09:23:38;35.1;7;105
2024-03-12 07:28:47;35.1;6;105
2024-03-12 05:34:00;35.2;4;105
2024-03-12 03:39:14;35.1;6;104
2024-03-12 01:44:26;35.1;5;105
2024-03-11 23:49:39;35.1;5;102
2024-03-11 21:54:48;35;8;105
2024-03-11 19:59:56;35;8;103
2024-03-11 18:04:59;35;10;104
2024-03-11 16:09:58;35.1;11;104
2024-03-11 14:14:56;35;11;104
2024-03-11 12:19:57;35.1;9;105
2024-03-11 10:25:02;35.2;8;105
2024-03-11 08:30:12;35.2;7;105
2024-03-11 06:35:22;35.2;7;104
2024-03-11 04:40:32;35.2;7;104
2024-03-11 02:45:43;35.2;7;105
2024-03-11 00:50:51;35.2;7;104
2024-03-10 22:55:58;35.2;8;104
2024-03-10 21:01:03;35.2;9;104
2024-03-10 19:06:08;35.1;10;103
2024-03-10 17:11:07;35;12;103
2024-03-10 15:16:03;35;12;103
2024-03-10 13:21:01;35.1;10;105
2024-03-10 11:26:03;35.2;9;105
2024-03-10 09:31:11;35.3;7;105
2024-03-10 07:36:21;35.3;7;105
2024-03-10 05:41:30;35.3;7;104
2024-03-10 03:46:36;35.3;8;104
2024-03-10 01:51:42;35.2;8;105
2024-03-09 23:56:48;35.2;8;105
2024-03-09 22:01:54;35.1;9;105
2024-03-09 20:06:56;35;10;104
2024-03-09 18:11:56;35;12;104
2024-03-09 16:16:49;34.9;13;104
2024-03-09 14:21:38;34.9;14;103
2024-03-09 12:26:28;35;13;103
2024-03-09 10:31:21;35;12;104
2024-03-09 08:36:18;35.1;11;104
2024-03-09 06:41:18;35.1;10;104
2024-03-09 04:46:20;35.2;10;104
2024-03-09 02:51:20;35.2;10;104
2024-03-09 00:56:22;35.3;9;104
2024-03-08 23:01:26;35.3;9;105
2024-03-08 21:06:30;35.3;8;105
2024-03-08 19:11:38;35.3;8;105
2024-03-08 17:16:43;35.3;9;105
2024-03-08 15:21:46;35.3;9;105
2024-03-08 13:26:46;35.2;11;105
2024-03-08 11:31:48;35.3;9;105
2024-03-08 09:36:52;35.4;7;104
2024-03-08 07:42:04;35.5;6;104
2024-03-08 05:47:17;35.5;5;103
2024-03-08 03:52:31;35.5;5;104
2024-03-08 01:57:47;35.5;4;102
2024-03-08 00:03:02;35.4;5;103
2024-03-07 22:08:14;35.4;6;102
2024-03-07 20:13:20;35.4;9;102
2024-03-07 18:18:18;35.3;13;104
2024-03-07 16:23:08;35.1;13;104
2024-03-07 14:28:03;35.3;11;103
2024-03-07 12:33:07;35.4;8;103
2024-03-07 10:38:19;35.7;3;104
2024-03-07 08:43:41;35.9;0;103
2024-03-07 06:49:08;35.8;1;102
2024-03-07 04:54:32;35.8;1;102
2024-03-07 02:59:55;35.7;1;102
2024-03-07 01:05:16;35.6;3;102
2024-03-06 23:10:33;35.6;4;104
2024-03-06 21:15:48;35.5;6;104
2024-03-06 19:20:56;35.5;9;103
2024-03-06 17:25:57;35.4;11;102
2024-03-06 15:30:55;35.4;12;102
2024-03-06 13:35:54;35.4;11;103
2024-03-06 11:40:56;35.6;8;103
2024-03-06 09:46:08;35.9;3;104
2024-03-06 07:51:27;35.9;2;102
2024-03-06 05:56:44;35.8;5;104
2024-03-06 04:01:58;35.8;5;104
2024-03-06 02:07:13;35.7;5;105
2024-03-06 00:12:28;35.8;3;104
2024-03-05 22:17:46;35.8;3;102
2024-03-05 20:23:01;35.7;6;101
2024-03-05 18:28:09;35.7;10;102
2024-03-05 16:33:06;35.6;11;102
2024-03-05 14:38:15;35.7;10;103
2024-03-05 12:43:10;35.9;8;104
2024-03-05 10:48:19;36;5;104
2024-03-05 08:53:35;36.1;2;105
2024-03-05 06:58:55;36.2;1;102
2024-03-05 05:04:21;36;4;103
2024-03-05 03:14:45;36;5;104
2024-03-05 02:57:42;36;3;104
2024-03-04 23:20:02;36;3;103
2024-03-04 21:25:19;36;4;103
2024-03-04 19:30:33;35.9;7;103
2024-03-04 17:35:39;35.8;9;103
2024-03-04 15:40:43;35.8;9;103
2024-03-04 13:45:48;35.8;8;103
2024-03-04 11:50:56;35.9;7;103
2024-03-04 09:56:08;35.9;6;103
2024-03-04 08:01:22;35.9;5;104
2024-03-04 06:06:37;36;5;104
2024-03-04 04:11:52;36;4;104
2024-03-04 02:17:07;36.1;4;104
2024-03-04 00:22:23;36.1;4;104
2024-03-03 22:27:41;36.2;3;104
2024-03-03 20:33:01;36.2;2;104
2024-03-03 18:38:22;36.5;1;104
2024-03-03 16:43:43;36.9;1;104
2024-03-03 14:49:05;36.9;1;104
2024-03-03 12:59:55;36.2;4;104
2024-03-03 11:05:07;36;7;103
2024-03-03 09:10:13;35.9;9;103
2024-03-03 07:15:17;35.9;9;103
2024-03-03 05:20:20;35.8;10;103
2024-03-03 03:25:21;35.8;10;103
2024-03-03 01:30:23;35.8;10;103
2024-03-02 23:35:23;35.7;11;103
2024-03-02 21:40:19;35.7;13;103
2024-03-02 19:45:12;35.7;13;103
2024-03-02 17:50:03;35.7;15;102
2024-03-02 15:54:49;35.7;15;102
2024-03-02 13:59:37;35.7;14;101
2024-03-02 12:04:32;35.9;10;103
2024-03-02 10:09:34;36;8;103
2024-03-02 08:14:46;36.1;5;103
2024-03-02 06:19:58;36.1;6;104
2024-03-02 04:25:10;36.1;5;104
2024-03-02 02:30:27;36.1;3;103
2024-03-02 00:35:44;36.1;3;103
2024-03-01 22:41:00;36.1;4;103
2024-03-01 20:46:17;36.1;5;101
2024-03-01 18:51:24;35.9;11;101
2024-03-01 16:56:18;35.8;13;101
2024-03-01 15:01:11;35.7;13;102
2024-03-01 13:06:08;35.9;11;103
2024-03-01 11:11:10;36;9;103
2024-03-01 09:16:15;36.1;8;104
2024-03-01 07:21:24;36.2;6;104
2024-03-01 05:26:36;36.2;6;104
2024-03-01 03:31:48;36.2;5;104
2024-03-01 01:37:02;36.2;5;102
2024-02-29 23:42:15;36.1;6;104
2024-02-29 21:47:27;36.2;5;103
2024-02-29 19:52:39;36.1;8;99
2024-02-29 17:57:39;35.9;12;103
2024-02-29 16:02:34;35.8;12;102
2024-02-29 14:07:30;35.9;10;103
2024-02-29 12:12:32;36;9;103
2024-02-29 10:17:39;36.1;7;104
2024-02-29 08:22:49;36.1;6;104
2024-02-29 06:28:00;36.1;7;104
2024-02-29 04:33:09;36.1;7;104
2024-02-29 02:38:17;36.1;7;104
2024-02-29 00:43:25;36.1;8;104
2024-02-28 22:48:31;36.1;8;104
2024-02-28 20:53:39;36.1;8;104
2024-02-28 18:58:46;36.1;8;104
2024-02-28 17:03:52;36.1;8;104
2024-02-28 15:08:59;36.2;8;104
2024-02-28 13:14:06;36.2;7;104
2024-02-28 11:19:14;36.2;7;104
2024-02-28 09:24:22;36.2;7;104
2024-02-28 07:29:31;36.2;7;104
2024-02-28 05:34:38;36.2;8;103
2024-02-28 03:39:43;36.1;9;103
2024-02-28 01:44:48;36.2;9;103
2024-02-27 23:49:51;36.2;9;103
2024-02-27 21:54:54;36.2;9;103
2024-02-27 20:00:00;36.2;9;103
2024-02-27 18:05:04;36.3;9;103
2024-02-27 16:10:08;36.3;9;103
2024-02-27 14:15:14;36.3;8;104
2024-02-27 12:20:20;36.3;8;104
2024-02-27 10:25:27;36.3;8;103
2024-02-27 08:30:38;36.4;6;104
2024-02-27 06:35:52;36.5;3;103
2024-02-27 04:41:11;36.5;3;103
2024-02-27 02:46:29;36.5;3;102
2024-02-27 00:51:51;36.4;4;102
2024-02-26 22:57:02;36.4;5;102
2024-02-26 21:02:14;36.3;7;101
2024-02-26 19:07:23;36.2;11;102
2024-02-26 17:12:15;36;13;101
2024-02-26 15:17:06;36.1;14;101
2024-02-26 13:21:57;36.1;13;101
2024-02-26 11:26:56;36.4;9;103
2024-02-26 09:32:01;36.5;7;103
2024-02-26 07:37:11;36.5;7;103
2024-02-26 05:42:19;36.5;8;103
2024-02-26 03:47:27;36.5;8;103
2024-02-26 01:52:34;36.6;8;103
2024-02-25 23:57:41;36.5;8;103
2024-02-25 22:02:48;36.5;8;103
2024-02-25 20:07:55;36.4;8;103
2024-02-25 18:13:01;36.4;9;103
2024-02-25 16:18:03;36.3;11;102
2024-02-25 14:23:00;36.3;11;102
2024-02-25 12:27:59;36.4;10;101
2024-02-25 10:33:07;36.6;5;103
2024-02-25 08:38:23;36.7;3;103
2024-02-25 06:43:41;36.7;3;103
2024-02-25 04:48:57;36.7;3;103
2024-02-25 02:54:17;36.7;1;103
2024-02-25 00:59:40;36.7;1;102
2024-02-24 23:05:01;36.7;2;102
2024-02-24 21:10:19;36.6;4;102
2024-02-24 19:15:33;36.5;8;100
2024-02-24 17:20:34;36.4;11;102
2024-02-24 15:25:33;36.4;11;101
2024-02-24 13:30:32;36.4;10;102
2024-02-24 11:35:34;36.5;8;102
2024-02-24 09:40:48;36.7;3;104
2024-02-24 07:46:07;36.7;3;101
2024-02-24 05:51:23;36.7;4;103
2024-02-24 03:56:40;36.7;4;102
2024-02-24 02:01:52;36.6;5;103
2024-02-24 00:07:04;36.6;6;103
2024-02-23 22:12:14;36.6;7;103
2024-02-23 20:17:24;36.5;8;102
2024-02-23 18:22:28;36.5;10;102
2024-02-23 16:27:28;36.5;11;101
2024-02-23 14:32:27;36.6;11;101
2024-02-23 12:37:27;36.6;9;102
2024-02-23 10:42:35;36.8;5;103
2024-02-23 08:47:53;36.9;2;102
2024-02-23 06:53:13;36.9;3;102
2024-02-23 04:58:27;36.8;6;102
2024-02-23 03:03:37;36.7;8;103
2024-02-23 01:08:43;36.6;9;103
2024-02-22 23:13:44;36.6;10;102
2024-02-22 21:18:41;36.5;12;103
2024-02-22 19:23:38;36.6;12;102
2024-02-22 17:28:32;36.5;12;102
2024-02-22 15:33:26;36.5;12;102
2024-02-22 13:38:23;36.6;11;103
2024-02-22 11:43:24;36.7;10;103
2024-02-22 09:48:25;36.7;9;103
2024-02-22 07:53:29;36.7;9;103
2024-02-22 05:58:32;36.7;9;103
2024-02-22 04:03:35;36.6;9;103
2024-02-22 02:08:38;36.6;10;103
2024-02-22 00:13:38;36.5;11;103
2024-02-21 22:18:37;36.5;11;102
2024-02-21 20:23:33;36.4;13;102
2024-02-21 18:28:25;36.4;15;101
2024-02-21 16:33:11;36.3;16;101
2024-02-21 14:37:55;36.4;15;100
2024-02-21 12:42:47;36.6;10;101
2024-02-21 10:47:54;36.8;6;103
2024-02-21 08:53:09;37;3;103
2024-02-21 06:58:28;36.9;3;103
2024-02-21 05:03:47;36.9;3;103
2024-02-21 03:09:05;36.9;4;102
2024-02-21 01:14:19;36.8;6;102
2024-02-20 23:19:30;36.8;7;103
2024-02-20 21:24:39;36.8;8;101
2024-02-20 19:29:42;36.7;10;103
2024-02-20 17:34:39;36.6;12;103
2024-02-20 15:39:31;36.6;13;102
2024-02-20 13:44:23;36.6;12;102
2024-02-20 11:49:22;36.7;10;103
2024-02-20 09:54:24;36.8;9;103
2024-02-20 07:59:27;36.8;9;103
2024-02-20 06:04:31;36.8;9;103
2024-02-20 04:09:33;36.8;10;103
2024-02-20 02:14:35;36.8;10;103
2024-02-20 00:19:34;36.7;11;103
2024-02-19 22:24:33;36.7;11;103
2024-02-19 20:29:28;36.7;12;103
2024-02-19 18:34:21;36.7;13;103
2024-02-19 16:39:11;36.6;14;102
2024-02-19 14:44:01;36.7;13;102
2024-02-19 12:48:54;36.7;12;102
2024-02-19 10:53:50;36.8;11;103
2024-02-19 08:58:49;36.8;10;103
2024-02-19 07:03:50;36.8;10;104
2024-02-19 05:08:52;36.9;9;104
2024-02-19 03:13:54;36.9;10;104
2024-02-19 01:18:53;36.8;11;103
2024-02-18 23:23:50;36.8;11;103
2024-02-18 21:28:48;36.8;11;104
2024-02-18 19:33:47;36.8;11;101
2024-02-18 17:38:41;36.8;13;103
2024-02-18 15:43:32;36.7;14;102
2024-02-18 13:48:23;36.7;12;103
2024-02-18 11:53:18;36.8;11;103
2024-02-18 09:58:17;36.8;10;104
2024-02-18 08:03:19;36.8;10;104
2024-02-18 06:08:21;36.8;10;104
2024-02-18 04:13:22;36.8;10;104
2024-02-18 02:18:22;36.8;10;104
2024-02-18 00:23:22;36.8;10;104
2024-02-17 22:28:22;36.8;10;104
2024-02-17 20:33:22;36.8;11;104
2024-02-17 18:38:21;36.8;11;104
2024-02-17 16:43:19;36.8;11;104
2024-02-17 14:48:16;36.9;11;104
2024-02-17 12:53:14;36.9;11;104
2024-02-17 10:58:12;36.9;11;104
2024-02-17 09:03:11;36.9;11;104
2024-02-17 07:08:06;36.9;12;104
2024-02-17 05:13:02;36.9;11;103
2024-02-17 03:18:02;37;8;104
2024-02-17 01:23:09;37;8;104
2024-02-16 23:28:15;37;9;103
2024-02-16 21:33:20;37;9;101
2024-02-16 19:38:19;36.9;12;100
2024-02-16 17:43:07;36.7;16;102
2024-02-16 15:47:50;36.7;16;102
2024-02-16 13:52:36;36.8;15;103
2024-02-16 11:57:28;36.9;12;103
2024-02-16 10:02:28;37;9;104
2024-02-16 08:07:32;37;8;103
2024-02-16 06:12:35;37;9;103
2024-02-16 04:17:38;37;9;104
2024-02-16 02:22:40;37;10;104
2024-02-16 00:27:44;37;9;103
2024-02-15 22:32:47;37;10;102
2024-02-15 20:37:45;36.9;12;103
2024-02-15 18:42:39;36.9;13;103
2024-02-15 16:47:28;36.9;14;103
2024-02-15 14:52:17;36.9;14;103
2024-02-15 12:57:11;37;11;104
2024-02-15 11:02:09;37;10;103
2024-02-15 09:07:14;37.2;6;103
2024-02-15 07:12:25;37.3;4;103
2024-02-15 05:17:39;37.2;6;102
2024-02-15 03:22:47;37.1;7;104
2024-02-15 01:27:56;37.2;6;104
2024-02-14 23:33:10;37.2;5;103
2024-02-14 21:38:23;37.2;6;102
2024-02-14 19:43:32;37.1;8;100
2024-02-14 17:48:31;36.9;14;102
2024-02-14 15:53:19;36.9;14;101
2024-02-14 13:58:11;37.1;11;102
2024-02-14 12:03:14;37.2;7;101
2024-02-14 10:08:28;37.5;2;105
2024-02-14 08:13:49;37.5;1;104
2024-02-14 06:19:10;37.5;1;104
2024-02-14 04:24:31;37.5;1;104
2024-02-14 02:29:52;37.5;2;104
2024-02-14 00:35:12;37.4;2;104
2024-02-13 22:40:31;37.4;2;103
2024-02-13 20:45:49;37.4;4;102
2024-02-13 18:51:01;37.2;8;101
2024-02-13 16:55:59;37.1;12;102
2024-02-13 15:00:56;37.1;11;102
2024-02-13 13:05:56;37.2;9;103
2024-02-13 11:11:25;37.3;7;104
2024-02-13 09:16:18;37.4;4;104
2024-02-13 07:21:31;37.4;5;104
2024-02-13 05:26:44;37.4;6;104